Weather History for St. Johnsbury, VT

Change the Weather History Date:

Friday, November 4, 2011

  Actual Average Record
Temperature  
Mean Temperature 35 °F 40 °F  
Max Temperature 42 °F 50 °F 73 °F (1990)
Min Temperature 28 °F 31 °F 15 °F (1912)
Degree Days  
Heating Degree Days 30 24  
Month to date heating degree days 103 95  
Since 1 July heating degree days 770 882  
Cooling Degree Days 0 0  
Month to date cooling degree days 0  
Year to date cooling degree days 433  
Moisture  
Dew Point 27 °F    
Average Humidity 70    
Maximum Humidity 85    
Minimum Humidity 54    
Precipitation  
Precipitation 0.00 in 0.13 in 4.41 in (1927)
Month to date precipitation 0.00 0.50  
Year to date precipitation 45.81 33.52  
Sea Level Pressure  
Sea Level Pressure 30.11 in    
Wind  
Wind Speed - (North)    
Max Wind Speed -    
Max Gust Speed -    
T = Trace of Precipitation, MM = Missing Value Source: NWS Daily Summary

Daily Weather History Graph

Daily Weather History Graph

Search for Another Location

Airport:

Trip Planner

Search our weather history database for the weather conditions in past years. The results will help you decide how hot, cold, wet, or windy it might be!

Date:

Astronomy

Nov. 04, 2011 Rise Set
Actual Time 7:28 AM EDT 5:33 PM EDT
Civil Twilight 6:58 AM EDT 6:04 PM EDT
Nautical Twilight 6:23 AM EDT 6:38 PM EDT
Astronomical Twilight 5:50 AM EDT 7:12 PM EDT
Moon 2:35 PM EDT (11/4) 1:25 AM EDT (11/4)
Length of Visible Light 11h 05m
Length of Day
10h 04m
Waxing Gibbous, 69% of the Moon is Illuminated
Nov 4
Waxing Gibbous
Nov 10
Full
Nov 18
Last Quarter
Nov 25
New
Dec 2
First Quarter

Hourly Weather History & Observations

Time (EDT) Temp. Dew Point Humidity Pressure Visibility Wind Dir Wind Speed Gust Speed Precip Events Conditions
12:54 AM 42.1 °F 36.0 °F 79% 29.95 in - North - - N/A   Unknown
1:54 AM 39.9 °F 34.0 °F 79% 29.95 in - North - - N/A   Unknown
2:54 AM 39.0 °F 32.0 °F 76% 29.96 in - North - - N/A   Unknown
3:54 AM 37.9 °F 30.9 °F 76% 29.97 in - North - - N/A   Unknown
4:54 AM 36.0 °F 30.0 °F 79% 29.98 in - North - - N/A   Unknown
5:54 AM 37.0 °F 30.0 °F 76% 30.00 in - North - - N/A   Unknown
6:54 AM 36.0 °F 28.9 °F 76% 30.01 in - North - - N/A   Unknown
7:54 AM 36.0 °F 28.0 °F 73% 30.04 in - North - - N/A   Unknown
8:54 AM 37.0 °F 27.0 °F 67% 30.06 in - North - - N/A   Unknown
9:54 AM 36.0 °F 26.1 °F 67% 30.06 in - North - - N/A   Unknown
10:54 AM 39.9 °F 25.0 °F 55% 30.06 in - North - - N/A   Unknown
11:54 AM 39.9 °F 25.0 °F 55% 30.08 in - North - - N/A   Unknown
12:54 PM 39.0 °F 25.0 °F 57% 30.08 in - North - - N/A   Unknown
1:54 PM 39.0 °F 27.0 °F 62% 30.10 in - North - - N/A   Unknown
2:54 PM 39.0 °F 27.0 °F 62% 30.11 in - North - - N/A   Unknown
3:54 PM 37.9 °F 27.0 °F 65% 30.13 in - North - - N/A   Unknown
4:54 PM 37.9 °F 25.0 °F 60% 30.17 in - North - - N/A   Unknown
5:54 PM 36.0 °F 24.1 °F 62% 30.20 in - North - - N/A   Unknown
6:54 PM 35.1 °F 26.1 °F 70% 30.25 in - North - - N/A   Unknown
7:54 PM 36.0 °F 26.1 °F 67% 30.27 in - North - - N/A   Unknown
8:54 PM 36.0 °F 24.1 °F 62% 30.28 in - North - - N/A   Unknown
9:54 PM 34.0 °F 23.0 °F 64% 30.30 in - North - - N/A   Unknown
10:54 PM 30.9 °F 26.1 °F 82% 30.30 in - North - - N/A   Unknown
11:54 PM 30.0 °F 25.0 °F 82% 30.31 in - North - - N/A   Unknown